Location: Memmingen
(47.9830°N, 10.1733°E)
Time: 02:08:25
(UTC+01:00)

ISS - Pass Details

Date: 12 February 2018
Orbit: 403 x 407 km, 51.6° (Epoch: 22 February)

Event Time Altitude Azimuth Distance (km) Brightness Sun altitude
Rises 18:32:09 0° 289° (WNW) 2,321 1.2 -9.8°
Reaches altitude 10° 18:34:25 10° 277° (W) 1,459 0.4 -10.2°
Maximum altitude 18:37:13 27° 218° (SW) 819 -1.7 -10.6°
Drops below altitude 10° 18:40:02 10° 158° (SSE) 1,452 -1.2 -11.1°
Sets 18:42:17 0° 146° (SE) 2,308 -0.3 -11.5°
Enters shadow 18:42:20 - 146° (SE) 2,327 -0.2 -11.5°
